| time (UTC) | temp C | wind direction | speed KPH | gust KPH | rain 1hr cm | rain 24hr cm | rain mn cm | humidity % | barometer mb |
| 20260508050008 | 18 | 86 | 0.0 | 3.2 | 0.00 | 0.00 | 0.00 | 78 | 1009.6 |
| 20260508044506 | 18 | 96 | 1.6 | 4.8 | 0.00 | 0.00 | 0.00 | 75 | 1009.5 |
| 20260508043006 | 18 | 190 | 0.0 | 1.6 | 0.00 | 0.00 | 0.00 | 75 | 1009.4 |
| 20260508041508 | 18 | 111 | 0.0 | 3.2 | 0.00 | 0.00 | 0.00 | 76 | 1009.3 |
| 20260508040034 | 18 | 61 | 0.0 | 3.2 | 0.00 | 0.00 | 0.00 | 77 | 1009.2 |
| 20260508034504 | 18 | 49 | 0.0 | 0.0 | 0.00 | 0.00 | 0.00 | 78 | 1009.0 |
| 20260508033007 | 18 | 91 | 0.0 | 3.2 | 0.00 | 0.00 | 0.00 | 79 | 1008.9 |
| 20260508031514 | 18 | 66 | 0.0 | 6.4 | 0.00 | 0.00 | 0.00 | 79 | 1008.5 |
| 20260508030012 | 18 | 92 | 1.6 | 12.9 | 0.00 | 0.00 | 0.00 | 77 | 1008.3 |
| 20260508024525 | 18 | 90 | 1.6 | 6.4 | 0.00 | 0.00 | 0.00 | 67 | 1008.5 |
| 20260508023009 | 19 | 170 | 0.0 | 4.8 | 0.00 | 0.00 | 0.00 | 65 | 1007.9 |
| 20260508021508 | 19 | 189 | 1.6 | 6.4 | 0.00 | 0.00 | 0.00 | 64 | 1007.9 |
| 20260508020010 | 19 | 203 | 3.2 | 4.8 | 0.00 | 0.00 | 0.00 | 65 | 1008.0 |
| 20260508014514 | 19 | 246 | 3.2 | 11.3 | 0.00 | 0.00 | 0.00 | 65 | 1008.0 |
| 20260508013019 | 19 | 278 | 3.2 | 11.3 | 0.00 | 0.00 | 0.00 | 66 | 1007.9 |
| 20260508011506 | 19 | 231 | 6.4 | 12.9 | 0.00 | 0.00 | 0.00 | 63 | 1007.7 |
| 20260508010014 | 19 | 97 | 0.0 | 3.2 | 0.00 | 0.00 | 0.00 | 63 | 1007.6 |
| 20260508004519 | 19 | 123 | 0.0 | 0.0 | 0.00 | 0.00 | 0.00 | 65 | 1007.6 |
| 20260508003016 | 19 | 142 | 0.0 | 1.6 | 0.00 | 0.00 | 0.00 | 65 | 1007.9 |
| 20260508001522 | 19 | 196 | 1.6 | 8.0 | 0.00 | 0.00 | 0.00 | 64 | 1008.2 |
| 20260508000009 | 20 | 92 | 1.6 | 11.3 | 0.00 | 0.00 | 0.00 | 63 | 1008.3 |
| 20260507234513 | 20 | 89 | 1.6 | 8.0 | 0.00 | 0.00 | 0.00 | 62 | 1008.6 |
| 20260507233019 | 21 | 123 | 0.0 | 16.1 | 0.00 | 0.00 | 0.00 | 58 | 1008.8 |
| 20260507231502 | 21 | 165 | 12.9 | 32.2 | 0.00 | 0.00 | 0.00 | 57 | 1008.9 |
| 20260507224507 | 20 | 240 | 12.9 | 24.1 | 0.00 | 0.00 | 0.00 | 61 | 1009.8 |
| 20260507223007 | 20 | 244 | 11.3 | 19.3 | 0.00 | 0.00 | 0.00 | 61 | 1009.9 |
| 20260507221504 | 20 | 248 | 4.8 | 11.3 | 0.00 | 0.00 | 0.00 | 60 | 1009.9 |
| 20260507220002 | 20 | 247 | 4.8 | 8.0 | 0.00 | 0.00 | 0.00 | 59 | 1009.2 |
| 20260507213009 | 20 | 196 | 1.6 | 6.4 | 0.00 | 0.00 | 0.00 | 61 | 1008.8 |
| 20260507211504 | 20 | 173 | 0.0 | 3.2 | 0.00 | 0.00 | 0.00 | 61 | 1008.7 |
| 20260507210005 | 20 | 175 | 0.0 | 6.4 | 0.00 | 0.00 | 0.00 | 60 | 1008.7 |
| 20260507204505 | 20 | 200 | 1.6 | 6.4 | 0.00 | 0.00 | 0.00 | 59 | 1008.9 |
| 20260507201507 | 20 | 196 | 3.2 | 9.7 | 0.00 | 0.00 | 0.00 | 59 | 1009.0 |
| 20260507200004 | 20 | 219 | 0.0 | 9.7 | 0.00 | 0.00 | 0.00 | 56 | 1008.6 |
| 20260507194520 | 20 | 193 | 1.6 | 6.4 | 0.00 | 0.00 | 0.00 | 59 | 1008.6 |
| 20260507193008 | 20 | 198 | 1.6 | 6.4 | 0.00 | 0.00 | 0.00 | 62 | 1008.4 |
| 20260507190011 | 20 | 237 | 3.2 | 8.0 | 0.00 | 0.00 | 0.00 | 60 | 1008.0 |
| 20260507184504 | 20 | 201 | 1.6 | 4.8 | 0.00 | 0.00 | 0.00 | 59 | 1007.8 |
| 20260507183002 | 20 | 217 | 0.0 | 4.8 | 0.00 | 0.00 | 0.00 | 61 | 1007.8 |
| 20260507181500 | 20 | 233 | 3.2 | 6.4 | 0.00 | 0.00 | 0.00 | 62 | 1007.8 |
| 20260507180000 | 20 | 244 | 3.2 | 6.4 | 0.00 | 0.00 | 0.00 | 58 | 1007.4 |
| 20260507174509 | 21 | 205 | 0.0 | 0.0 | 0.00 | 0.00 | 0.00 | 58 | 1007.2 |
| 20260507173011 | 21 | 82 | 1.6 | 3.2 | 0.00 | 0.00 | 0.00 | 57 | 1007.3 |
| 20260507171501 | 21 | 221 | 0.0 | 4.8 | 0.00 | 0.00 | 0.00 | 57 | 1007.3 |
| 20260507170001 | 21 | 213 | 1.6 | 3.2 | 0.00 | 0.00 | 0.00 | 56 | 1007.4 |
| 20260507164507 | 21 | 313 | 0.0 | 3.2 | 0.00 | 0.00 | 0.00 | 54 | 1007.5 |
| 20260507163004 | 21 | 323 | 1.6 | 4.8 | 0.00 | 0.00 | 0.00 | 56 | 1007.4 |
| 20260507161505 | 22 | 321 | 3.2 | 6.4 | 0.00 | 0.00 | 0.00 | 55 | 1007.3 |
| 20260507155959 | 21 | 294 | 3.2 | 6.4 | 0.00 | 0.00 | 0.00 | 58 | 1007.4 |
| 20260507154505 | 21 | 261 | 3.2 | 12.9 | 0.00 | 0.00 | 0.00 | 57 | 1007.8 |
| 20260507153004 | 21 | 164 | 8.0 | 14.5 | 0.00 | 0.00 | 0.00 | 58 | 1007.6 |
| 20260507151506 | 21 | 244 | 8.0 | 14.5 | 0.00 | 0.00 | 0.00 | 60 | 1007.5 |
| 20260507150011 | 21 | 249 | 9.7 | 22.5 | 0.00 | 0.00 | 0.00 | 55 | 1007.7 |
| 20260507144500 | 23 | 207 | 9.7 | 19.3 | 0.00 | 0.00 | 0.00 | 51 | 1007.4 |
| 20260507143001 | 23 | 325 | 3.2 | 24.1 | 0.00 | 0.00 | 0.00 | 51 | 1007.4 |
| 20260507134510 | 24 | 205 | 4.8 | 17.7 | 0.00 | 0.00 | 0.00 | 47 | 1007.3 |
| 20260507133001 | 24 | 159 | 8.0 | 17.7 | 0.00 | 0.00 | 0.00 | 46 | 1007.6 |
| 20260507131515 | 23 | 202 | 4.8 | 14.5 | 0.00 | 0.00 | 0.00 | 48 | 1008.0 |
| 20260507124513 | 22 | 96 | 8.0 | 16.1 | 0.00 | 0.00 | 0.00 | 47 | 1008.3 |
| 20260507123014 | 22 | 95 | 4.8 | 16.1 | 0.00 | 0.00 | 0.00 | 46 | 1008.4 |
| 20260507121508 | 22 | 111 | 8.0 | 14.5 | 0.00 | 0.00 | 0.00 | 49 | 1008.3 |
| 20260507120007 | 22 | 103 | 8.0 | 14.5 | 0.00 | 0.00 | 0.00 | 49 | 1008.1 |
| 20260507114506 | 22 | 138 | 4.8 | 14.5 | 0.00 | 0.00 | 0.00 | 51 | 1008.2 |
| 20260507113032 | 22 | 109 | 6.4 | 16.1 | 0.00 | 0.00 | 0.00 | 54 | 1008.3 |
| 20260507111516 | 22 | 77 | 11.3 | 25.7 | 0.00 | 0.00 | 0.00 | 53 | 1008.2 |
| 20260507110006 | 21 | 127 | 9.7 | 16.1 | 0.00 | 0.00 | 0.00 | 56 | 1008.4 |
| 20260507104504 | 22 | 75 | 6.4 | 12.9 | 0.00 | 0.00 | 0.00 | 53 | 1008.5 |
| 20260507103008 | 24 | 137 | 9.7 | 20.9 | 0.00 | 0.00 | 0.00 | 45 | 1008.6 |
| 20260507101517 | 23 | 360 | 6.4 | 17.7 | 0.00 | 0.00 | 0.00 | 38 | 1008.3 |
| 20260507100020 | 25 | 38 | 4.8 | 14.5 | 0.00 | 0.00 | 0.00 | 30 | 1008.6 |
| 20260507094503 | 25 | 163 | 3.2 | 22.5 | 0.00 | 0.00 | 0.00 | 27 | 1008.7 |
| 20260507093008 | 24 | 96 | 4.8 | 30.6 | 0.00 | 0.00 | 0.00 | 29 | 1008.6 |
| 20260507091511 | 25 | 189 | 3.2 | 19.3 | 0.00 | 0.00 | 0.00 | 29 | 1009.2 |
| 20260507090016 | 24 | 88 | 3.2 | 19.3 | 0.00 | 0.00 | 0.00 | 31 | 1009.2 |
| 20260507084520 | 23 | 68 | 9.7 | 24.1 | 0.00 | 0.00 | 0.00 | 34 | 1009.3 |
| 20260507083005 | 23 | 215 | 11.3 | 24.1 | 0.00 | 0.00 | 0.00 | 34 | 1009.3 |
| 20260507081508 | 22 | 96 | 17.7 | 33.8 | 0.00 | 0.00 | 0.00 | 35 | 1009.3 |
| 20260507080015 | 23 | 94 | 4.8 | 17.7 | 0.00 | 0.00 | 0.00 | 32 | 1009.7 |
| 20260507074518 | 22 | 240 | 6.4 | 22.5 | 0.00 | 0.00 | 0.00 | 29 | 1009.4 |
| 20260507073025 | 22 | 259 | 3.2 | 17.7 | 0.00 | 0.00 | 0.00 | 30 | 1009.4 |
| 20260507071505 | 22 | 85 | 3.2 | 20.9 | 0.00 | 0.00 | 0.00 | 30 | 1009.4 |
| 20260507070013 | 22 | 190 | 4.8 | 14.5 | 0.00 | 0.00 | 0.00 | 30 | 1009.5 |
| 20260507064518 | 22 | 352 | 1.6 | 11.3 | 0.00 | 0.00 | 0.00 | 31 | 1009.5 |
| 20260507063024 | 22 | 77 | 0.0 | 4.8 | 0.00 | 0.00 | 0.00 | 33 | 1009.6 |
| 20260507061506 | 22 | 135 | 1.6 | 9.7 | 0.00 | 0.00 | 0.00 | 31 | 1009.7 |
| 20260507060007 | 21 | 342 | 3.2 | 17.7 | 0.00 | 0.00 | 0.00 | 33 | 1009.7 |
| 20260507054502 | 21 | 102 | 6.4 | 14.5 | 0.00 | 0.00 | 0.00 | 30 | 1009.6 |
| 20260507053002 | 20 | 83 | 6.4 | 19.3 | 0.00 | 0.00 | 0.00 | 33 | 1009.5 |
| 20260507051507 | 20 | 125 | 4.8 | 17.7 | 0.00 | 0.00 | 0.00 | 33 | 1009.6 |